Orbital Elements at Epoch 2459000.5 (2020-May-31.0) TDB
Reference: JPL 12 (heliocentric ecliptic J2000)
Element | Value | Uncertainty (1-sigma) | Units |
e | .1968617202482499 | 5.7463e-08 | |
a | 3.184920132050257 | 2.6957e-08 | au |
q | 2.55793127600156 | 1.8632e-07 | au |
i | 17.36360006344366 | 7.7489e-06 | deg |
node | 310.2690256205779 | 2.0927e-05 | deg |
peri | 145.0259184409229 | 3.0371e-05 | deg |
M | 156.8471021475141 | 1.9659e-05 | deg |
tp | 2458095.975688019403 (2017-Dec-08.47568802) | 0.00010954 | TDB |
period | 2076.09033163241 5.68 | 2.6358e-05 7.216e-08 | d yr |
n | .1734028594588827 | 2.2015e-09 | deg/d |
Q | 3.811908988098954 | 3.2264e-08 | au |
|
| | Orbit Determination Parameters
Additional Information
|